This demonstration page uses our WeatherBlox Daily Observations layout. Learn more.

41.55636, -103.73856

Hourly Observations for August 6, 2015

Temp ( °F °C ) Dew Point ( °F °C ) Humidity (%) Winds ( mph kmh ) Pressure ( in mb ) Visibility ( mi km ) Precip ( " mm )
12:53 am 00:53 Clear 76 24.4 60 15.6 58 58 WSW 8 13 29.75 1007 10 16.0934 0 0
1:53 am 01:53 Mostly Clear 74 23.3 59 15 60 60 N 3 6 29.73 1007 10 16.0934 0 0
2:53 am 02:53 Clear 68 20 60 15.6 76 76 SSE 6 9 29.73 1007 10 16.0934 0 0
3:53 am 03:53 Clear 66 18.9 60 15.6 81 81 E 6 9 29.73 1007 10 16.0934 0 0
4:53 am 04:53 Clear 63 17.2 60 15.6 90 90 Calm 29.74 1007 10 16.0934 0 0
5:53 am 05:53 Clear 62 16.7 58 14.4 86 86 NW 7 11 29.77 1008 10 16.0934 0 0
6:53 am 06:53 Sunny 67 19.4 55 12.8 66 66 WNW 13 20 29.79 1009 10 16.0934 0 0
7:53 am 07:53 Sunny 68 20 56 13.3 65 65 WNW 14 22 29.81 1010 10 16.0934 0 0
8:53 am 08:53 Sunny 72 22.2 56 13.3 57 57 WNW 17 28 29.84 1010 10 16.0934 0 0
9:53 am 09:53 Sunny 76 24.4 55 12.8 48 48 WNW 21 33 29.85 1011 10 16.0934 0 0
10:53 am 10:53 Sunny 80 26.7 56 13.3 44 44 WNW 18 30 29.85 1011 10 16.0934 0 0
11:53 am 11:53 Sunny 82 27.8 49 9.4 32 32 W 20 31 29.85 1011 10 16.0934 0 0
12:53 pm 12:53 Sunny 83 28.3 50 10 32 32 WNW 17 28 29.83 1010 10 16.0934 0 0
1:53 pm 13:53 Sunny 85 29.4 48 8.9 28 28 NW 15 24 29.83 1010 10 16.0934 0 0
2:53 pm 14:53 Sunny 86 30 48 8.9 27 27 NW 15 24 29.83 1010 10 16.0934 0 0
3:53 pm 15:53 Sunny 87 30.6 47 8.3 25 25 NNW 10 17 29.82 1010 10 16.0934 0 0
4:53 pm 16:53 Sunny 88 31.1 45 7.2 22 22 WNW 7 11 29.8 1009 10 16.0934 0 0
5:53 pm 17:53 Sunny 86 30 46 7.8 25 25 Calm 29.8 1009 10 16.0934 0 0
6:53 pm 18:53 Sunny 84 28.9 48 8.9 29 29 S 3 6 29.78 1009 10 16.0934 0 0
7:53 pm 19:53 Sunny 78 25.6 58 14.4 50 50 SSE 5 7 29.8 1009 10 16.0934 0 0
8:53 pm 20:53 Clear 71 21.7 54 12.2 55 55 ENE 10 17 29.83 1010 10 16.0934 0 0
9:53 pm 21:53 Clear 67 19.4 54 12.2 63 63 E 5 7 29.86 1011 10 16.0934 0 0
10:53 pm 22:53 Clear 63 17.2 56 13.3 78 78 E 6 9 29.86 1011 10 16.0934 0 0
11:53 pm 23:53 Clear 64 17.8 55 12.8 73 73 E 8 13 29.85 1011 10 16.0934 0 0

Powered by AerisWeather